Terug naar catalogus

FENGYUN 1C DEB

ActiefSSO
NORAD 36736·DEBRIS·🇨🇳 China

Gelanceerd May 10, 1999 vanaf Taiyuan Satellite Launch Center

Loading…

Volgende Passages (komende 24 uur)

TLE

VersSource: Space-Track

Epoch: Sep 14, 2026, 10:54 UTC

1 36736U 99025EBJ 26257.45465136  .00001840  00000-0  75781-3 0  9990
2 36736  98.7923 337.2107 0059032  60.5883 300.1172 14.27178447925462

Volg FENGYUN 1C DEB in realtime met AllMySat

Download on the App Store